| time (UTC) | temp F | wind direction | speed MPH | gust MPH | rain 1hr in | rain 24hr in | rain mn in | humidity % | barometer mb |
| 20260504050340 | 61 | 246 | 0.0 | 2.0 | 0.00 | 0.00 | 0.00 | 76 | 1019.1 |
| 20260504045838 | 61 | 283 | 1.0 | 4.0 | 0.00 | 0.00 | 0.00 | 76 | 1019.2 |
| 20260504045332 | 61 | 251 | 0.0 | 1.0 | 0.00 | 0.00 | 0.00 | 76 | 1019.0 |
| 20260504044829 | 61 | 254 | 0.0 | 3.0 | 0.00 | 0.00 | 0.00 | 76 | 1019.1 |
| 20260504044327 | 62 | 331 | 1.0 | 3.0 | 0.00 | 0.00 | 0.00 | 76 | 1019.0 |
| 20260504043824 | 61 | 228 | 2.0 | 5.0 | 0.00 | 0.00 | 0.00 | 76 | 1019.2 |
| 20260504043321 | 62 | 225 | 2.0 | 2.0 | 0.00 | 0.00 | 0.00 | 76 | 1019.1 |
| 20260504042818 | 62 | 270 | 3.0 | 5.0 | 0.00 | 0.00 | 0.00 | 75 | 1019.4 |
| 20260504042314 | 62 | 218 | 2.0 | 5.0 | 0.00 | 0.00 | 0.00 | 75 | 1019.1 |
| 20260504041811 | 62 | 355 | 0.0 | 3.0 | 0.00 | 0.00 | 0.00 | 75 | 1018.9 |
| 20260504041307 | 62 | 237 | 2.0 | 3.0 | 0.00 | 0.00 | 0.00 | 75 | 1018.9 |
| 20260504040803 | 61 | 270 | 0.0 | 3.0 | 0.00 | 0.00 | 0.00 | 75 | 1019.0 |
| 20260504040301 | 62 | 286 | 1.0 | 3.0 | 0.00 | 0.00 | 0.00 | 74 | 1018.5 |
| 20260504035757 | 62 | 280 | 0.0 | 3.0 | 0.00 | 0.00 | 0.00 | 74 | 1018.7 |
| 20260504035254 | 62 | 307 | 2.0 | 3.0 | 0.00 | 0.00 | 0.00 | 74 | 1018.8 |
| 20260504034751 | 62 | 248 | 0.0 | 4.0 | 0.00 | 0.00 | 0.00 | 74 | 1018.9 |
| 20260504034249 | 62 | 248 | 3.0 | 5.0 | 0.00 | 0.00 | 0.00 | 74 | 1018.7 |
| 20260504033746 | 62 | 254 | 0.0 | 3.0 | 0.00 | 0.00 | 0.00 | 75 | 1018.6 |
| 20260504033244 | 62 | 267 | 4.0 | 5.0 | 0.00 | 0.00 | 0.00 | 75 | 1018.5 |
| 20260504032740 | 62 | 270 | 0.0 | 5.0 | 0.00 | 0.00 | 0.00 | 75 | 1018.3 |
| 20260504032237 | 62 | 225 | 3.0 | 5.0 | 0.00 | 0.00 | 0.00 | 75 | 1018.3 |
| 20260504031734 | 62 | 264 | 2.0 | 3.0 | 0.00 | 0.00 | 0.00 | 75 | 1018.3 |
| 20260504031232 | 62 | 267 | 4.0 | 6.0 | 0.00 | 0.00 | 0.00 | 75 | 1018.2 |
| 20260504030727 | 62 | 285 | 0.0 | 4.0 | 0.00 | 0.00 | 0.00 | 76 | 1018.2 |
| 20260504030225 | 62 | 239 | 2.0 | 5.0 | 0.00 | 0.00 | 0.00 | 75 | 1018.2 |
| 20260504025721 | 62 | 250 | 2.0 | 3.0 | 0.00 | 0.00 | 0.00 | 75 | 1018.0 |
| 20260504025218 | 62 | 246 | 3.0 | 5.0 | 0.00 | 0.00 | 0.00 | 75 | 1017.9 |
| 20260504024715 | 62 | 351 | 2.0 | 6.0 | 0.00 | 0.00 | 0.00 | 75 | 1018.0 |
| 20260504024211 | 63 | 270 | 2.0 | 4.0 | 0.00 | 0.00 | 0.00 | 74 | 1018.0 |
| 20260504023708 | 63 | 280 | 3.0 | 5.0 | 0.00 | 0.00 | 0.00 | 74 | 1017.9 |
| 20260504023204 | 63 | 243 | 5.0 | 6.0 | 0.00 | 0.00 | 0.00 | 73 | 1017.9 |
| 20260504022700 | 63 | 250 | 0.0 | 5.0 | 0.00 | 0.00 | 0.00 | 72 | 1017.9 |
| 20260504022156 | 63 | 237 | 0.0 | 4.0 | 0.00 | 0.00 | 0.00 | 71 | 1017.9 |
| 20260504021655 | 63 | 259 | 3.0 | 3.0 | 0.00 | 0.00 | 0.00 | 72 | 1017.7 |
| 20260504021151 | 63 | 250 | 2.0 | 8.0 | 0.00 | 0.00 | 0.00 | 72 | 1017.9 |
| 20260504020648 | 63 | 300 | 3.0 | 4.0 | 0.00 | 0.00 | 0.00 | 72 | 1017.4 |
| 20260504020144 | 64 | 286 | 2.0 | 6.0 | 0.00 | 0.00 | 0.00 | 71 | 1017.5 |
| 20260504015641 | 64 | 253 | 4.0 | 5.0 | 0.00 | 0.00 | 0.00 | 71 | 1017.4 |
| 20260504015137 | 64 | 291 | 1.0 | 3.0 | 0.00 | 0.00 | 0.00 | 71 | 1017.2 |
| 20260504014633 | 64 | 325 | 1.0 | 3.0 | 0.00 | 0.00 | 0.00 | 71 | 1017.4 |
| 20260504014130 | 64 | 277 | 0.0 | 6.0 | 0.00 | 0.00 | 0.00 | 70 | 1017.4 |
| 20260504013628 | 64 | 277 | 1.0 | 5.0 | 0.00 | 0.00 | 0.00 | 70 | 1017.2 |
| 20260504013124 | 64 | 240 | 2.0 | 5.0 | 0.00 | 0.00 | 0.00 | 69 | 1017.2 |
| 20260504012622 | 65 | 334 | 0.0 | 6.0 | 0.00 | 0.00 | 0.00 | 69 | 1017.2 |
| 20260504012120 | 65 | 263 | 0.0 | 6.0 | 0.00 | 0.00 | 0.00 | 69 | 1017.3 |
| 20260504011616 | 65 | 270 | 0.0 | 4.0 | 0.00 | 0.00 | 0.00 | 69 | 1017.1 |
| 20260504011113 | 65 | 259 | 3.0 | 4.0 | 0.00 | 0.00 | 0.00 | 69 | 1017.0 |
| 20260504010608 | 66 | 345 | 1.0 | 5.0 | 0.00 | 0.00 | 0.00 | 68 | 1017.3 |
| 20260504010105 | 66 | 317 | 0.0 | 4.0 | 0.00 | 0.00 | 0.00 | 66 | 1017.0 |
| 20260504005601 | 65 | 251 | 2.0 | 4.0 | 0.00 | 0.00 | 0.00 | 68 | 1016.9 |
| 20260504005059 | 66 | 355 | 0.0 | 7.0 | 0.00 | 0.00 | 0.00 | 67 | 1016.8 |
| 20260504004556 | 66 | 270 | 4.0 | 4.0 | 0.00 | 0.00 | 0.00 | 67 | 1016.9 |
| 20260504004053 | 65 | 254 | 1.0 | 4.0 | 0.00 | 0.00 | 0.00 | 68 | 1017.1 |
| 20260504003549 | 65 | 239 | 2.0 | 7.0 | 0.00 | 0.00 | 0.00 | 68 | 1017.0 |
| 20260504003046 | 66 | 240 | 0.0 | 6.0 | 0.00 | 0.00 | 0.00 | 67 | 1017.0 |
| 20260504002543 | 66 | 270 | 1.0 | 5.0 | 0.00 | 0.00 | 0.00 | 67 | 1017.0 |
| 20260504002041 | 65 | 264 | 1.0 | 5.0 | 0.00 | 0.00 | 0.00 | 67 | 1017.2 |
| 20260504001538 | 66 | 255 | 3.0 | 6.0 | 0.00 | 0.00 | 0.00 | 66 | 1017.1 |
| 20260504001034 | 66 | 251 | 3.0 | 4.0 | 0.00 | 0.00 | 0.00 | 66 | 1016.9 |
| 20260504000532 | 66 | 253 | 2.0 | 7.0 | 0.00 | 0.00 | 0.00 | 65 | 1016.6 |
| 20260504000029 | 66 | 337 | 0.0 | 5.0 | 0.00 | 0.00 | 0.00 | 64 | 1016.6 |
| 20260503235527 | 66 | 248 | 2.0 | 6.0 | 0.00 | 0.00 | 0.00 | 64 | 1016.8 |
| 20260503235023 | 67 | 337 | 3.0 | 6.0 | 0.00 | 0.00 | 0.00 | 63 | 1016.8 |
| 20260503234521 | 67 | 337 | 0.0 | 3.0 | 0.00 | 0.00 | 0.00 | 61 | 1016.7 |
| 20260503234020 | 66 | 284 | 3.0 | 7.0 | 0.00 | 0.00 | 0.00 | 61 | 1016.3 |
| 20260503233515 | 66 | 234 | 1.0 | 4.0 | 0.00 | 0.00 | 0.00 | 63 | 1016.3 |
| 20260503233011 | 65 | 246 | 0.0 | 4.0 | 0.00 | 0.00 | 0.00 | 63 | 1016.6 |
| 20260503232509 | 66 | 222 | 3.0 | 7.0 | 0.00 | 0.00 | 0.00 | 62 | 1016.7 |
| 20260503232006 | 66 | 244 | 6.0 | 6.0 | 0.00 | 0.00 | 0.00 | 62 | 1016.9 |
| 20260503231504 | 67 | 292 | 2.0 | 4.0 | 0.00 | 0.00 | 0.00 | 61 | 1017.0 |
| 20260503231000 | 66 | 297 | 2.0 | 4.0 | 0.00 | 0.00 | 0.00 | 61 | 1016.8 |
| 20260503230457 | 67 | 283 | 1.0 | 4.0 | 0.00 | 0.00 | 0.00 | 60 | 1017.2 |
| 20260503225954 | 66 | 279 | 0.0 | 3.0 | 0.00 | 0.00 | 0.00 | 60 | 1017.1 |
| 20260503225451 | 67 | 265 | 3.0 | 5.0 | 0.00 | 0.00 | 0.00 | 59 | 1017.3 |
| 20260503224946 | 67 | 296 | 3.0 | 7.0 | 0.00 | 0.00 | 0.00 | 59 | 1017.0 |
| 20260503224444 | 67 | 254 | 3.0 | 7.0 | 0.00 | 0.00 | 0.00 | 60 | 1017.2 |
| 20260503223942 | 65 | 273 | 3.0 | 3.0 | 0.00 | 0.00 | 0.00 | 60 | 1017.1 |
| 20260503223439 | 67 | 347 | 3.0 | 4.0 | 0.00 | 0.00 | 0.00 | 59 | 1017.2 |
| 20260503222934 | 67 | 221 | 2.0 | 5.0 | 0.00 | 0.00 | 0.00 | 60 | 1017.4 |
| 20260503222433 | 68 | 243 | 2.0 | 5.0 | 0.00 | 0.00 | 0.00 | 58 | 1017.3 |
| 20260503221931 | 68 | 215 | 1.0 | 4.0 | 0.00 | 0.00 | 0.00 | 57 | 1017.3 |
| 20260503221429 | 68 | 270 | 2.0 | 3.0 | 0.00 | 0.00 | 0.00 | 56 | 1017.4 |
| 20260503220926 | 69 | 263 | 3.0 | 4.0 | 0.00 | 0.00 | 0.00 | 55 | 1017.5 |
| 20260503220422 | 68 | 282 | 2.0 | 5.0 | 0.00 | 0.00 | 0.00 | 54 | 1017.4 |
| 20260503215919 | 68 | 215 | 0.0 | 6.0 | 0.00 | 0.00 | 0.00 | 56 | 1017.5 |
| 20260503215416 | 69 | 206 | 1.0 | 6.0 | 0.00 | 0.00 | 0.00 | 56 | 1017.4 |
| 20260503214914 | 66 | 258 | 2.0 | 2.0 | 0.00 | 0.00 | 0.00 | 57 | 1017.5 |
| 20260503214411 | 68 | 207 | 5.0 | 6.0 | 0.00 | 0.00 | 0.00 | 57 | 1017.7 |
| 20260503213908 | 69 | 206 | 2.0 | 8.0 | 0.00 | 0.00 | 0.00 | 56 | 1017.5 |
| 20260503213406 | 68 | 253 | 2.0 | 4.0 | 0.00 | 0.00 | 0.00 | 56 | 1017.5 |
| 20260503212902 | 68 | 300 | 2.0 | 5.0 | 0.00 | 0.00 | 0.00 | 57 | 1017.7 |
| 20260503212400 | 69 | 221 | 4.0 | 4.0 | 0.00 | 0.00 | 0.00 | 55 | 1017.7 |
| 20260503211857 | 68 | 232 | 3.0 | 4.0 | 0.00 | 0.00 | 0.00 | 56 | 1017.6 |
| 20260503211354 | 68 | 213 | 4.0 | 5.0 | 0.00 | 0.00 | 0.00 | 56 | 1017.7 |
| 20260503210849 | 68 | 286 | 0.0 | 2.0 | 0.00 | 0.00 | 0.00 | 58 | 1017.6 |
| 20260503210347 | 68 | 276 | 5.0 | 5.0 | 0.00 | 0.00 | 0.00 | 56 | 1017.8 |
| 20260503205841 | 68 | 260 | 2.0 | 6.0 | 0.00 | 0.00 | 0.00 | 58 | 1017.8 |
| 20260503205339 | 69 | 282 | 5.0 | 5.0 | 0.00 | 0.00 | 0.00 | 57 | 1017.6 |
| 20260503204835 | 67 | 270 | 0.0 | 3.0 | 0.00 | 0.00 | 0.00 | 59 | 1017.5 |
| 20260503204332 | 68 | 231 | 2.0 | 6.0 | 0.00 | 0.00 | 0.00 | 58 | 1017.8 |
| 20260503203829 | 68 | 219 | 3.0 | 6.0 | 0.00 | 0.00 | 0.00 | 57 | 1017.6 |
| 20260503203327 | 67 | 212 | 0.0 | 3.0 | 0.00 | 0.00 | 0.00 | 58 | 1017.8 |
| 20260503202823 | 68 | 209 | 1.0 | 4.0 | 0.00 | 0.00 | 0.00 | 59 | 1017.5 |
| 20260503202322 | 67 | 239 | 4.0 | 4.0 | 0.00 | 0.00 | 0.00 | 59 | 1017.9 |
| 20260503201820 | 67 | 234 | 0.0 | 4.0 | 0.00 | 0.00 | 0.00 | 60 | 1017.7 |
| 20260503201316 | 67 | 285 | 0.0 | 3.0 | 0.00 | 0.00 | 0.00 | 60 | 1017.8 |
| 20260503200814 | 67 | 283 | 1.0 | 4.0 | 0.00 | 0.00 | 0.00 | 59 | 1018.0 |
| 20260503200309 | 67 | 270 | 1.0 | 5.0 | 0.00 | 0.00 | 0.00 | 60 | 1017.9 |
| 20260503195807 | 66 | 208 | 0.0 | 3.0 | 0.00 | 0.00 | 0.00 | 59 | 1018.0 |
| 20260503195304 | 67 | 244 | 3.0 | 4.0 | 0.00 | 0.00 | 0.00 | 60 | 1018.0 |
| 20260503194801 | 67 | 270 | 1.0 | 2.0 | 0.00 | 0.00 | 0.00 | 60 | 1017.7 |
| 20260503194256 | 67 | 213 | 3.0 | 4.0 | 0.00 | 0.00 | 0.00 | 61 | 1018.2 |
| 20260503193753 | 67 | 227 | 0.0 | 4.0 | 0.00 | 0.00 | 0.00 | 61 | 1018.2 |
| 20260503193249 | 66 | 228 | 0.0 | 4.0 | 0.00 | 0.00 | 0.00 | 62 | 1018.3 |
| 20260503192745 | 66 | 257 | 2.0 | 3.0 | 0.00 | 0.00 | 0.00 | 61 | 1018.4 |
| 20260503192240 | 64 | 105 | 0.0 | 2.0 | 0.00 | 0.00 | 0.00 | 63 | 1018.4 |
| 20260503191737 | 64 | 254 | 0.0 | 2.0 | 0.00 | 0.00 | 0.00 | 62 | 1018.5 |
| 20260503191234 | 64 | 106 | 0.0 | 2.0 | 0.00 | 0.00 | 0.00 | 63 | 1018.6 |
| 20260503190731 | 65 | 282 | 0.0 | 3.0 | 0.00 | 0.00 | 0.00 | 63 | 1018.6 |
| 20260503190228 | 65 | 225 | 0.0 | 2.0 | 0.00 | 0.00 | 0.00 | 63 | 1018.6 |
| 20260503185725 | 64 | 233 | 0.0 | 3.0 | 0.00 | 0.00 | 0.00 | 64 | 1018.7 |
| 20260503185221 | 64 | 221 | 0.0 | 2.0 | 0.00 | 0.00 | 0.00 | 64 | 1018.5 |
| 20260503184715 | 64 | 243 | 0.0 | 3.0 | 0.00 | 0.00 | 0.00 | 65 | 1018.6 |
| 20260503184212 | 65 | 214 | 3.0 | 4.0 | 0.00 | 0.00 | 0.00 | 65 | 1018.7 |
| 20260503183708 | 64 | 243 | 0.0 | 3.0 | 0.00 | 0.00 | 0.00 | 65 | 1019.0 |
| 20260503183206 | 64 | 255 | 0.0 | 2.0 | 0.00 | 0.00 | 0.00 | 64 | 1018.8 |
| 20260503182704 | 64 | 249 | 0.0 | 2.0 | 0.00 | 0.00 | 0.00 | 65 | 1019.0 |
| 20260503182202 | 63 | 250 | 0.0 | 2.0 | 0.00 | 0.00 | 0.00 | 67 | 1018.9 |
| 20260503181658 | 63 | 276 | 2.0 | 3.0 | 0.00 | 0.00 | 0.00 | 68 | 1019.0 |
| 20260503181155 | 64 | 233 | 0.0 | 3.0 | 0.00 | 0.00 | 0.00 | 67 | 1018.8 |
| 20260503180652 | 63 | 237 | 0.0 | 3.0 | 0.00 | 0.00 | 0.00 | 68 | 1018.8 |
| 20260503180150 | 63 | 261 | 0.0 | 5.0 | 0.00 | 0.00 | 0.00 | 68 | 1018.8 |
| 20260503175647 | 64 | 270 | 3.0 | 5.0 | 0.00 | 0.00 | 0.00 | 68 | 1018.9 |
| 20260503175144 | 64 | 270 | 0.0 | 2.0 | 0.00 | 0.00 | 0.00 | 69 | 1018.7 |
| 20260503174640 | 64 | 270 | 2.0 | 3.0 | 0.00 | 0.00 | 0.00 | 69 | 1018.9 |
| 20260503174138 | 63 | 270 | 0.0 | 3.0 | 0.00 | 0.00 | 0.00 | 70 | 1018.8 |
| 20260503173632 | 63 | 270 | 0.0 | 2.0 | 0.00 | 0.00 | 0.00 | 70 | 1018.8 |
| 20260503173130 | 64 | 210 | 0.0 | 3.0 | 0.00 | 0.00 | 0.00 | 69 | 1018.8 |
| 20260503172627 | 63 | 261 | 0.0 | 0.0 | 0.00 | 0.00 | 0.00 | 70 | 1018.7 |
| 20260503172124 | 63 | 260 | 0.0 | 3.0 | 0.00 | 0.00 | 0.00 | 71 | 1018.8 |
| 20260503171620 | 63 | 243 | 0.0 | 2.0 | 0.00 | 0.00 | 0.00 | 72 | 1018.6 |
| 20260503171117 | 62 | 237 | 0.0 | 2.0 | 0.00 | 0.00 | 0.00 | 73 | 1018.8 |
| 20260503170615 | 63 | 255 | 0.0 | 2.0 | 0.00 | 0.00 | 0.00 | 72 | 1018.4 |
| 20260503170111 | 63 | 240 | 0.0 | 2.0 | 0.00 | 0.00 | 0.00 | 72 | 1018.6 |
| 20260503151006 | 61 | 114 | 0.0 | 2.0 | 0.00 | 0.00 | 0.00 | 83 | 1018.1 |
| 20260503150503 | 61 | 99 | 0.0 | 0.0 | 0.00 | 0.00 | 0.00 | 84 | 1018.1 |
| 20260503131356 | 60 | 221 | 0.0 | 2.0 | 0.00 | 0.00 | 0.00 | 88 | 1017.3 |
| 20260503130853 | 60 | 215 | 0.0 | 0.0 | 0.00 | 0.00 | 0.00 | 88 | 1017.1 |
| 20260503130350 | 60 | 215 | 0.0 | 0.0 | 0.00 | 0.00 | 0.00 | 88 | 1017.0 |
| 20260503110744 | 59 | 270 | 0.0 | 3.0 | 0.00 | 0.00 | 0.00 | 92 | 1016.9 |
| 20260503110241 | 59 | 263 | 0.0 | 2.0 | 0.00 | 0.00 | 0.00 | 91 | 1016.8 |
| 20260503100207 | 61 | 270 | 0.0 | 0.0 | 0.00 | 0.00 | 0.00 | 84 | 1016.8 |
| 20260503090132 | 61 | 215 | 1.0 | 2.0 | 0.00 | 0.00 | 0.00 | 86 | 1017.6 |
| 20260503081602 | 61 | 263 | 3.0 | 4.0 | 0.00 | 0.00 | 0.00 | 85 | 1017.7 |
| 20260503081059 | 61 | 216 | 0.0 | 2.0 | 0.00 | 0.00 | 0.00 | 86 | 1017.3 |
| 20260503080555 | 61 | 240 | 0.0 | 2.0 | 0.00 | 0.00 | 0.00 | 86 | 1017.5 |
| 20260503072529 | 61 | 215 | 0.0 | 1.0 | 0.00 | 0.00 | 0.00 | 89 | 1017.4 |
| 20260503072026 | 61 | 270 | 0.0 | 2.0 | 0.00 | 0.00 | 0.00 | 89 | 1017.3 |
| 20260503071523 | 61 | 220 | 2.0 | 2.0 | 0.00 | 0.00 | 0.00 | 89 | 1016.9 |
| 20260503071020 | 61 | 270 | 0.0 | 2.0 | 0.00 | 0.00 | 0.00 | 89 | 1017.0 |
| 20260503070516 | 61 | 270 | 0.0 | 0.0 | 0.00 | 0.00 | 0.00 | 89 | 1016.9 |